Weather History for Naples, FL

Change the Weather History Date:

Sunday, November 25, 2012

  Actual Average Record
Temperature  
Mean Temperature 60 °F 70 °F  
Max Temperature 70 °F 79 °F 88 °F (1986)
Min Temperature 50 °F 61 °F 31 °F (1970)
Degree Days  
Heating Degree Days 5 1  
Month to date heating degree days 12 6  
Since 1 July heating degree days 13 7  
Cooling Degree Days 0 6  
Month to date cooling degree days 101 196  
Year to date cooling degree days 3942 3791  
Growing Degree Days 10 (Base 50)    
Moisture  
Dew Point 50 °F    
Average Humidity 71    
Maximum Humidity 93    
Minimum Humidity 49    
Precipitation  
Precipitation 0.00 in 0.04 in 0.76 in (2009)
Month to date precipitation 0.12 1.74  
Year to date precipitation 36.15 50.14  
Snow  
Snow 0.00 in - - ()
Month to date snowfall 0.0  
Since 1 July snowfall 0.0  
Since 1 September snowfall 0.0  
Snow Depth 0.00 in    
Sea Level Pressure  
Sea Level Pressure 30.11 in    
Wind  
Wind Speed 4 mph (NNW)    
Max Wind Speed 12 mph    
Max Gust Speed 17 mph    
Visibility 10 miles    
Events      
T = Trace of Precipitation, MM = Missing Value Source: NWS Daily Summary

Daily Weather History Graph

Daily Weather History Graph

Search for Another Location

Airport:

Trip Planner

Search our weather history database for the weather conditions in past years. The results will help you decide how hot, cold, wet, or windy it might be!

Date:

Astronomy

Nov. 25, 2012 Rise Set
Actual Time 6:53 AM EST 5:35 PM EST
Civil Twilight 6:28 AM EST 5:59 PM EST
Nautical Twilight 6:00 AM EST 6:28 PM EST
Astronomical Twilight 5:32 AM EST 6:55 PM EST
Moon 3:42 PM EST (11/25) 4:17 AM EST (11/25)
Length of Visible Light 11h 31m
Length of Day
10h 41m
Waxing Gibbous, 93% of the Moon is Illuminated
Nov 25
Waxing Gibbous
Nov 28
Full
Dec 6
Last Quarter
Dec 13
New
Dec 20
First Quarter

Hourly Weather History & Observations

Time (EST) Temp. Dew Point Humidity Pressure Visibility Wind Dir Wind Speed Gust Speed Precip Events Conditions
12:53 AM 57.9 °F 51.1 °F 78% 30.09 in 10.0 mi North 4.6 mph - N/A   Clear
1:53 AM 55.9 °F 50.0 °F 80% 30.09 in 10.0 mi NNE 3.5 mph - N/A   Clear
2:53 AM 55.0 °F 48.9 °F 80% 30.09 in 10.0 mi North 4.6 mph - N/A   Clear
3:53 AM 53.1 °F 48.9 °F 86% 30.08 in 10.0 mi Calm Calm - N/A   Clear
4:53 AM 50.0 °F 48.0 °F 93% 30.08 in 10.0 mi Calm Calm - N/A   Clear
5:53 AM 52.0 °F 48.9 °F 89% 30.09 in 10.0 mi NNW 3.5 mph - N/A   Clear
6:53 AM 51.1 °F 48.0 °F 89% 30.12 in 10.0 mi North 3.5 mph - N/A   Clear
7:53 AM 54.0 °F 48.9 °F 83% 30.13 in 10.0 mi Calm Calm - N/A   Clear
8:53 AM 59.0 °F 51.1 °F 75% 30.14 in 10.0 mi NE 3.5 mph - N/A   Clear
9:53 AM 63.0 °F 52.0 °F 67% 30.16 in 10.0 mi NE 6.9 mph - N/A   Clear
10:53 AM 66.0 °F 51.1 °F 59% 30.16 in 10.0 mi NE 5.8 mph - N/A   Clear
11:53 AM 68.0 °F 48.0 °F 49% 30.14 in 10.0 mi Calm Calm - N/A   Clear
12:53 PM 69.1 °F 52.0 °F 54% 30.11 in 10.0 mi NW 6.9 mph - N/A   Clear
1:53 PM 68.0 °F 51.1 °F 55% 30.09 in 10.0 mi WNW 10.4 mph - N/A   Clear
2:53 PM 69.1 °F 50.0 °F 51% 30.07 in 10.0 mi WNW 8.1 mph - N/A   Clear
3:53 PM 68.0 °F 51.1 °F 55% 30.08 in 10.0 mi WNW 9.2 mph - N/A   Clear
4:53 PM 66.9 °F 50.0 °F 54% 30.08 in 10.0 mi NW 3.5 mph - N/A   Clear
5:53 PM 63.0 °F 52.0 °F 67% 30.09 in 10.0 mi NW 3.5 mph - N/A   Clear
6:53 PM 62.1 °F 52.0 °F 70% 30.10 in 10.0 mi NNW 3.5 mph - N/A   Clear
7:53 PM 61.0 °F 54.0 °F 78% 30.12 in 10.0 mi NNW 4.6 mph - N/A   Clear
8:53 PM 60.1 °F 52.0 °F 75% 30.13 in 10.0 mi North 3.5 mph - N/A   Clear
9:53 PM 57.0 °F 51.1 °F 81% 30.14 in 10.0 mi Calm Calm - N/A   Clear
10:53 PM 55.0 °F - N/A% 30.14 in 10.0 mi Calm Calm - N/A   Clear
11:53 PM 55.0 °F - N/A% 30.14 in 10.0 mi Calm Calm - N/A   Clear